This is the latest recevied weather packets stored in our database for station/object W0BJ. If no packets are shown the sender has not sent any weather packets the latest 10 day(s).
| Time | Temp. | Humidity | Pressure | Rain* | Wind** | Luminosity | Snow |
|---|---|---|---|---|---|---|---|
| 1777728744 | 12.22° C | 71% | 1021.9 hPa | 0 mm | - | - | - |
| 1777728198 | 12.22° C | 71% | 1021.7 hPa | 0 mm | - | - | - |
| 1777728144 | 12.22° C | 72% | 1021.7 hPa | 0 mm | - | - | - |
| 1777727544 | 11.67° C | 73% | 1021.5 hPa | 0 mm | - | - | - |
| 1777727298 | 11.67° C | 73% | 1021.5 hPa | 0 mm | - | - | - |
| 1777726944 | 11.67° C | 73% | 1021.5 hPa | 0 mm | - | - | - |
| 1777726397 | 12.22° C | 70% | 1021.5 hPa | 0 mm | - | - | - |
| 1777726343 | 12.22° C | 71% | 1021.5 hPa | 0 mm | - | - | - |
| 1777725745 | 12.22° C | 73% | 1021.4 hPa | 0 mm | - | - | - |
| 1777725499 | 12.22° C | 74% | 1021.3 hPa | 0 mm | - | - | - |
| 1777725144 | 11.67° C | 74% | 1021.5 hPa | 0 mm | - | - | - |
| 1777724598 | 11.67° C | 75% | 1021.2 hPa | 0 mm | - | - | - |
| 1777724543 | 11.67° C | 76% | 1021.3 hPa | 0 mm | - | - | - |
| 1777723943 | 11.11° C | 77% | 1021.1 hPa | 0 mm | - | - | - |
| 1777723699 | 11.11° C | 80% | 1021.1 hPa | 0 mm | - | - | - |
| 1777723345 | 10.56° C | 84% | 1020.9 hPa | 0 mm | - | - | - |
| 1777722798 | 8.89° C | 86% | 1020.7 hPa | 0 mm | - | - | - |
| 1777722744 | 8.89° C | 86% | 1020.7 hPa | 0 mm | - | - | - |
| 1777722144 | 8.89° C | 88% | 1020.6 hPa | 0 mm | - | - | - |
| 1777721898 | 8.89° C | 87% | 1020.5 hPa | 0 mm | - | - | - |
| 1777721544 | 8.89° C | 87% | 1020.6 hPa | 0 mm | - | - | - |
| 1777720997 | 8.33° C | 88% | 1020.4 hPa | 0 mm | - | - | - |
| 1777720943 | 8.33° C | 88% | 1020.5 hPa | 0 mm | - | - | - |
| 1777720345 | 8.33° C | 87% | 1020.4 hPa | 0 mm | - | - | - |
| 1777720099 | 8.33° C | 87% | 1020.3 hPa | 0 mm | - | - | - |
* Rain latest hour (hover to see other rain measurements)
** Current wind speed in m/s (hover to see current wind gust speed)